• In United Kingdom
  • List of Countries
  • For 7 days
  • Water Temperature
  • Satellite Maps
  • Weather Map
  • Weather Widgets
  • user-avatar
    Login

    Hourly Weather Carlisle

    Today, 19 September, Tuesday

    Time Temperature Precipitation Wind Pressure Humidity
    00:00 +7°C° 0 mm 1 mps 762 mmHg 92%
    01:00 +7°C° 0 mm 1 mps 762 mmHg 92%
    02:00 +7°C° 0 mm 1 mps 762 mmHg 91%
    03:00 +7°C° 0 mm 1 mps 762 mmHg 91%
    04:00 +7°C° 0 mm 1 mps 762 mmHg 91%
    05:00 +7°C° 0 mm 1 mps 762 mmHg 91%
    06:00 +7°C° 0 mm 1 mps 762 mmHg 92%
    07:00 +9°C° 0 mm 1 mps 762 mmHg 89%
    08:00 +9°C° 0 mm 2 mps 762 mmHg 87%
    09:00 +12°C° 0 mm 2 mps 762 mmHg 84%
    10:00 +13°C° 0 mm 2 mps 762 mmHg 81%
    11:00 +13°C° 0 mm 3 mps 762 mmHg 78%
    12:00 +14°C° 0 mm 3 mps 762 mmHg 75%
    13:00 +14°C° 0 mm 3 mps 762 mmHg 76%
    14:00 +14°C° 0 mm 3 mps 762 mmHg 76%
    15:00 +14°C° 0 mm 4 mps 761 mmHg 77%
    16:00 +13°C° 0 mm 3 mps 761 mmHg 81%
    17:00 +12°C° 0 mm 3 mps 761 mmHg 85%
    18:00 +12°C° 0 mm 2 mps 761 mmHg 90%
    19:00 +12°C° 0 mm 2 mps 761 mmHg 91%
    20:00 +10°C° 0 mm 2 mps 761 mmHg 93%
    21:00 +9°C° 0 mm 2 mps 761 mmHg 95%
    22:00 +10°C° 0 mm 3 mps 760 mmHg 95%
    23:00 +10°C° 0 mm 3 mps 760 mmHg 95%

    Tomorrow, 20 September, Wednesday

    Time Temperature Precipitation Wind Pressure Humidity
    00:00 +11°C° 0 mm 3 mps 760 mmHg 96%
    01:00 +11°C° 0 mm 3 mps 760 mmHg 96%
    02:00 +12°C° 0 mm 3 mps 759 mmHg 96%
    03:00 +12°C° 0 mm 3 mps 759 mmHg 96%
    04:00 +12°C° 0 mm 4 mps 758 mmHg 95%
    05:00 +13°C° 0 mm 4 mps 758 mmHg 95%
    06:00 +13°C° 0 mm 4 mps 758 mmHg 95%
    07:00 +13°C° 0.1 mm 5 mps 757 mmHg 94%
    08:00 +14°C° 0.1 mm 5 mps 757 mmHg 92%
    09:00 +15°C° 0.1 mm 5 mps 757 mmHg 91%
    10:00 +15°C° 0.2 mm 5 mps 757 mmHg 91%
    11:00 +15°C° 0.2 mm 5 mps 756 mmHg 90%
    12:00 +16°C° 0.2 mm 6 mps 756 mmHg 90%
    13:00 +16°C° 0.4 mm 5 mps 756 mmHg 91%
    14:00 +15°C° 0.4 mm 5 mps 755 mmHg 92%
    15:00 +15°C° 0.4 mm 5 mps 755 mmHg 93%
    16:00 +15°C° 0.2 mm 5 mps 755 mmHg 93%
    17:00 +15°C° 0.2 mm 5 mps 754 mmHg 93%
    18:00 +15°C° 0.2 mm 5 mps 754 mmHg 93%
    19:00 +15°C° 0.8 mm 5 mps 754 mmHg 94%
    20:00 +15°C° 0.8 mm 6 mps 753 mmHg 94%
    21:00 +15°C° 0.8 mm 7 mps 753 mmHg 94%
    22:00 +15°C° 0.1 mm 7 mps 753 mmHg 94%
    23:00 +15°C° 0.1 mm 7 mps 753 mmHg 94%

    Day after tomorrow, 21 September, Thursday

    Time Temperature Precipitation Wind Pressure Humidity
    00:00 +15°C° 0.1 mm 7 mps 753 mmHg 94%
    01:00 +15°C° 0.2 mm 5 mps 753 mmHg 95%
    02:00 +14°C° 0.2 mm 4 mps 753 mmHg 95%
    03:00 +14°C° 0.2 mm 3 mps 753 mmHg 95%
    04:00 +14°C° 0.8 mm 4 mps 753 mmHg 95%
    05:00 +13°C° 0.8 mm 4 mps 753 mmHg 94%
    06:00 +13°C° 0.8 mm 4 mps 754 mmHg 94%
    07:00 +12°C° 0.9 mm 4 mps 754 mmHg 93%
    08:00 +12°C° 0.9 mm 3 mps 754 mmHg 93%
    09:00 +13°C° 0.9 mm 2 mps 755 mmHg 93%
    10:00 +13°C° 0.2 mm 2 mps 755 mmHg 90%
    11:00 +13°C° 0.2 mm 2 mps 755 mmHg 87%
    12:00 +14°C° 0.2 mm 2 mps 755 mmHg 84%
    13:00 +14°C° 0.2 mm 2 mps 756 mmHg 83%
    14:00 +14°C° 0.2 mm 2 mps 756 mmHg 82%
    15:00 +14°C° 0.2 mm 2 mps 756 mmHg 82%
    16:00 +13°C° 0 mm 2 mps 757 mmHg 84%
    17:00 +13°C° 0 mm 2 mps 757 mmHg 86%
    18:00 +12°C° 0 mm 2 mps 757 mmHg 88%
    19:00 +10°C° 0 mm 2 mps 758 mmHg 90%
    20:00 +9°C° 0 mm 2 mps 758 mmHg 91%
    21:00 +9°C° 0 mm 2 mps 759 mmHg 92%
    22:00 +8°C° 0 mm 2 mps 759 mmHg 92%
    23:00 +8°C° 0 mm 2 mps 759 mmHg 93%

    22 September, Friday

    Time Temperature Precipitation Wind Pressure Humidity
    00:00 +8°C° 0 mm 2 mps 760 mmHg 93%
    01:00 +8°C° 0 mm 2 mps 760 mmHg 94%
    02:00 +8°C° 0 mm 2 mps 760 mmHg 94%
    03:00 +8°C° 0 mm 2 mps 760 mmHg 94%
    04:00 +8°C° 0 mm 3 mps 760 mmHg 94%
    05:00 +9°C° 0 mm 3 mps 760 mmHg 94%
    06:00 +9°C° 0 mm 3 mps 760 mmHg 94%
    07:00 +10°C° 0.1 mm 4 mps 761 mmHg 91%
    08:00 +11°C° 0.1 mm 4 mps 761 mmHg 89%
    09:00 +12°C° 0.1 mm 5 mps 761 mmHg 86%
    10:00 +13°C° 0.1 mm 5 mps 761 mmHg 83%
    11:00 +14°C° 0.1 mm 5 mps 761 mmHg 80%
    12:00 +14°C° 0.1 mm 5 mps 761 mmHg 78%
    13:00 +14°C° 0.1 mm 5 mps 760 mmHg 80%
    14:00 +14°C° 0.1 mm 5 mps 760 mmHg 82%
    15:00 +13°C° 0.1 mm 5 mps 760 mmHg 84%
    16:00 +13°C° 0.1 mm 5 mps 760 mmHg 85%
    17:00 +13°C° 0.1 mm 6 mps 760 mmHg 87%
    18:00 +11°C° 0.1 mm 6 mps 760 mmHg 89%
    19:00 +13°C° 0.1 mm 5 mps 760 mmHg 91%
    20:00 +13°C° 0.1 mm 5 mps 760 mmHg 92%
    21:00 +13°C° 0.1 mm 5 mps 761 mmHg 94%
    22:00 +13°C° 0.2 mm 5 mps 761 mmHg 94%
    23:00 +14°C° 0.2 mm 5 mps 761 mmHg 94%

    23 September, Saturday

    Time Temperature Precipitation Wind Pressure Humidity
    00:00 +14°C° 0.2 mm 5 mps 761 mmHg 95%
    01:00 +14°C° 0.1 mm 5 mps 761 mmHg 95%
    02:00 +14°C° 0.1 mm 5 mps 761 mmHg 95%
    03:00 +14°C° 0.1 mm 5 mps 760 mmHg 95%
    04:00 +14°C° 0 mm 5 mps 761 mmHg 95%
    05:00 +14°C° 0 mm 5 mps 761 mmHg 95%
    06:00 +14°C° 0 mm 5 mps 761 mmHg 95%
    07:00 +14°C° 0 mm 5 mps 761 mmHg 93%
    08:00 +15°C° 0 mm 6 mps 761 mmHg 92%
    09:00 +15°C° 0 mm 6 mps 762 mmHg 91%
    10:00 +16°C° 0 mm 6 mps 762 mmHg 86%
    11:00 +17°C° 0 mm 6 mps 762 mmHg 82%
    12:00 +17°C° 0 mm 6 mps 762 mmHg 77%
    13:00 +17°C° 0 mm 6 mps 762 mmHg 75%
    14:00 +19°C° 0 mm 6 mps 761 mmHg 74%
    15:00 +19°C° 0 mm 6 mps 761 mmHg 72%
    16:00 +17°C° 0 mm 5 mps 761 mmHg 75%
    17:00 +15°C° 0 mm 5 mps 761 mmHg 78%
    18:00 +14°C° 0 mm 4 mps 761 mmHg 80%
    19:00 +13°C° 0 mm 4 mps 761 mmHg 79%
    20:00 +13°C° 0 mm 4 mps 761 mmHg 78%
    21:00 +12°C° 0 mm 4 mps 762 mmHg 77%
    22:00 +12°C° 0 mm 4 mps 762 mmHg 78%
    23:00 +11°C° 0 mm 4 mps 761 mmHg 78%

    24 September, Sunday

    Time Temperature Precipitation Wind Pressure Humidity
    00:00 +11°C° 0 mm 3 mps 761 mmHg 79%
    01:00 +10°C° 0 mm 3 mps 761 mmHg 79%
    02:00 +10°C° 0 mm 3 mps 761 mmHg 80%
    03:00 +10°C° 0 mm 3 mps 761 mmHg 81%
    04:00 +10°C° 0 mm 3 mps 761 mmHg 84%
    05:00 +10°C° 0 mm 3 mps 761 mmHg 86%
    06:00 +10°C° 0 mm 3 mps 761 mmHg 88%
    07:00 +11°C° 0 mm 3 mps 761 mmHg 88%
    08:00 +13°C° 0 mm 3 mps 761 mmHg 87%
    09:00 +14°C° 0 mm 3 mps 761 mmHg 87%
    10:00 +15°C° 0 mm 4 mps 761 mmHg 85%
    11:00 +17°C° 0 mm 4 mps 761 mmHg 82%
    12:00 +19°C° 0 mm 4 mps 760 mmHg 80%
    13:00 +19°C° 0.2 mm 4 mps 760 mmHg 81%
    14:00 +19°C° 0.2 mm 3 mps 760 mmHg 82%
    15:00 +18°C° 0.2 mm 3 mps 760 mmHg 84%
    16:00 +18°C° 0.2 mm 3 mps 759 mmHg 86%
    17:00 +17°C° 0.2 mm 2 mps 759 mmHg 89%
    18:00 +16°C° 0.2 mm 2 mps 759 mmHg 91%
    19:00 +16°C° 0.9 mm 2 mps 759 mmHg 93%
    20:00 +15°C° 0.9 mm 2 mps 759 mmHg 94%
    21:00 +15°C° 0.9 mm 2 mps 759 mmHg 96%
    22:00 +15°C° 1.7 mm 2 mps 759 mmHg 96%
    23:00 +15°C° 1.7 mm 2 mps 759 mmHg 96%
    Show more